Winfield, KS

11:42 AM CST on December 05, 2019 (GMT -0600)
Strother

Weather History for KWLD - August, 2019

Change the Weather History Date:

Friday, August 30, 2019

  Actual Average Record
Temperature  
Mean Temperature 72 °F -  
Max Temperature 80 °F 89 °F 102 °F (2013)
Min Temperature 66 °F 66 °F 55 °F (2017)
Cooling Degree Days 8    
Growing Degree Days 22 (Base 50)    
Moisture  
Dew Point 66 °F    
Average Humidity 84    
Maximum Humidity 100    
Minimum Humidity 60    
Precipitation  
Precipitation 1.79 in - - ()
Sea Level Pressure  
Sea Level Pressure 30.07 in    
Wind  
Wind Speed 11 mph ()    
Max Wind Speed 38 mph    
Max Gust Speed 48 mph    
Visibility 7.7 miles    
Events Rain , Thunderstorm    
Averages and records for this station are not official NWS values.
T = Trace of Precipitation, MM = Missing Value Source: Averaged Metar Reports

Daily Weather History Graph

Daily Weather History Graph

Search for Another Location

Airport or City:

Astronomy

Aug. 30, 2019 Rise Set
Actual Time 6:57 AM CDT 7:59 PM CDT
Civil Twilight 6:30 AM CDT 8:26 PM CDT
Nautical Twilight 5:58 AM CDT 8:58 PM CDT
Astronomical Twilight 5:25 AM CDT 9:31 PM CDT
Moon 7:00 AM CDT (8/30) 8:37 PM CDT (8/30)
Length of Visible Light 13h 56m
Length of Day
13h 02m
New Moon, 0% of the Moon is Illuminated
Aug 30
New Moon
Sep 5
First Quarter
Sep 13
Full
Sep 21
Last Quarter
Sep 28
New

Hourly Weather History & Observations

Time (CDT) Temp. Dew Point Humidity Pressure Visibility Wind Dir Wind Speed Gust Speed Precip Events Conditions
12:54 AM 79.0 °F 73.0 °F 82% 29.95 in 10.0 mi South 9.2 mph - N/A   Mostly Cloudy
1:05 AM 79.0 °F 73.0 °F 82% 29.99 in 10.0 mi South 9.2 mph - N/A Thunderstorm Thunderstorm
1:26 AM 77.0 °F 73.0 °F 88% 30.05 in 6.0 mi North - - 0.06 in Rain , Thunderstorm Light Rain
1:36 AM 68.0 °F 64.0 °F 87% 30.05 in 4.0 mi North 38.0 mph 48.3 mph 0.10 in Rain , Thunderstorm Thunderstorms and Rain
1:40 AM 66.9 °F 64.0 °F 90% 30.04 in 1.8 mi North 28.8 mph 48.3 mph 0.17 in Rain , Thunderstorm Heavy Thunderstorms and Rain
1:51 AM 66.2 °F 64.4 °F 94% 30.08 in 1.0 mi North 19.6 mph 36.8 mph 0.58 in Rain , Thunderstorm Heavy Thunderstorms and Rain
1:54 AM 66.0 °F 64.9 °F 96% 30.05 in 0.8 mi North 18.4 mph 36.8 mph 0.74 in Rain , Thunderstorm Heavy Thunderstorms and Rain
1:59 AM 66.0 °F 66.0 °F 100% 30.10 in 0.8 mi North 23.0 mph 29.9 mph 0.28 in Rain , Thunderstorm Heavy Thunderstorms and Rain
2:08 AM 66.0 °F 66.0 °F 100% 30.12 in 1.0 mi NW 19.6 mph 29.9 mph 0.58 in Rain , Thunderstorm Heavy Thunderstorms and Rain
2:24 AM 66.9 °F 66.0 °F 97% 30.07 in 2.0 mi Variable 4.6 mph 23.0 mph 0.83 in Rain , Thunderstorm Heavy Thunderstorms and Rain
2:41 AM 68.0 °F 68.0 °F 100% 30.06 in 4.0 mi Variable 3.5 mph - 0.89 in Rain , Thunderstorm Thunderstorms and Rain
2:54 AM 68.0 °F 68.0 °F 100% 30.06 in 7.0 mi North - - 0.91 in Rain , Thunderstorm Light Thunderstorms and Rain
3:03 AM 66.9 °F - N/A% 30.09 in 9.0 mi NE 5.8 mph - 0.00 in Rain , Thunderstorm Light Thunderstorms and Rain
3:26 AM 69.1 °F - N/A% 30.10 in 8.0 mi East 9.2 mph - 0.03 in Rain , Thunderstorm Light Rain
3:44 AM 68.0 °F - N/A% 30.08 in 8.0 mi East 9.2 mph - 0.06 in Rain Rain
3:54 AM 68.0 °F - N/A% 30.04 in 9.0 mi ESE 8.1 mph - 0.07 in Rain Light Rain
5:54 AM 68.0 °F - N/A% 30.04 in 10.0 mi ESE 8.1 mph - N/A   Clear
6:54 AM 66.9 °F 66.0 °F 97% 30.05 in 10.0 mi SE 4.6 mph - N/A   Clear
7:54 AM 66.0 °F 64.9 °F 96% 30.07 in 10.0 mi Calm Calm - 0.00 in Rain Light Rain
8:54 AM 66.0 °F 64.9 °F 96% 30.09 in 6.0 mi North 5.8 mph - 0.04 in Rain Light Rain
9:54 AM 66.9 °F 64.9 °F 93% 30.07 in 10.0 mi Calm Calm - 0.03 in   Partly Cloudy
10:54 AM 69.1 °F 66.0 °F 90% 30.09 in 10.0 mi North 5.8 mph - N/A   Clear
11:54 AM 73.0 °F 66.0 °F 79% 30.09 in 10.0 mi NNE 4.6 mph - N/A   Clear
12:54 PM 77.0 °F 64.9 °F 66% 30.07 in 10.0 mi NE 10.4 mph - N/A   Clear
1:54 PM 79.0 °F 64.0 °F 60% 30.07 in 10.0 mi NE 3.5 mph - N/A   Clear
2:54 PM 79.0 °F 66.0 °F 64% 30.06 in 10.0 mi NNE 8.1 mph - N/A   Clear
3:54 PM 79.0 °F 64.9 °F 62% 30.06 in 10.0 mi NE 8.1 mph - N/A   Partly Cloudy
4:54 PM 79.0 °F 66.0 °F 64% 30.06 in 10.0 mi ENE 9.2 mph - N/A   Partly Cloudy
5:54 PM 77.0 °F 66.0 °F 69% 30.09 in 10.0 mi East 11.5 mph 21.9 mph N/A   Mostly Cloudy
6:26 PM 75.9 °F 64.9 °F 69% 30.12 in 10.0 mi ENE 11.5 mph - N/A   Mostly Cloudy
6:54 PM 75.0 °F 64.9 °F 71% 30.10 in 10.0 mi East 11.5 mph - N/A   Overcast
7:54 PM 72.0 °F 64.0 °F 76% 30.09 in 10.0 mi East 10.4 mph - N/A   Clear
8:54 PM 70.0 °F 64.9 °F 84% 30.10 in 10.0 mi East 8.1 mph - N/A   Clear
9:54 PM 69.1 °F 64.9 °F 87% 30.12 in 10.0 mi East 4.6 mph - N/A   Clear
10:54 PM 68.0 °F 63.0 °F 84% 30.14 in 10.0 mi East 5.8 mph - N/A   Clear
11:54 PM 66.0 °F 63.0 °F 90% 30.13 in 10.0 mi East 5.8 mph - N/A   Clear